{"data":{"norad_id":52538,"epoch":"2026-09-19T22:58:40.916064Z","epoch_age_seconds":110184,"freshness":"FRESH","line1":"1 52538U 22051F   26262.95741801 -.00000234  00000+0  41959-5 0  9998","line2":"2 52538  53.1607 320.0121 0001199  86.1749 273.9390 15.34388020241005","mean_motion":15.3438802,"eccentricity":0.0001199,"inclination_deg":53.1607,"raan_deg":320.0121,"arg_perigee_deg":86.1749,"mean_anomaly_deg":273.939,"bstar":4.1959e-6,"rev_number":24100,"period_min":93.848490813947,"perigee_km":461.91862650933,"apogee_km":463.55906853757,"semimajor_km":6840.8758475234,"source":"CELESTRAK","updated_at":"2026-09-20T09:00:40.059012Z"}}